﻿測定場所 (Monitoring sites),日付 (Measurement date),時間 (Measurement time),線量率 最大値 (max) μGy/h,線量率 最小値 (min) μGy/h,線量率 平均値 (average) μGy/h,
江戸川 (Edogawa),2013-06-23,23:01～24:00,0.0976,0.0854,0.0907,
江戸川 (Edogawa),2013-06-23,22:01～23:00,0.0992,0.0846,0.0908,
江戸川 (Edogawa),2013-06-23,21:01～22:00,0.0968,0.0837,0.0919,
江戸川 (Edogawa),2013-06-23,20:01～21:00,0.0957,0.0850,0.0907,
江戸川 (Edogawa),2013-06-23,19:01～20:00,0.0954,0.0851,0.0913,
江戸川 (Edogawa),2013-06-23,18:01～19:00,0.0972,0.0856,0.0896,
江戸川 (Edogawa),2013-06-23,17:01～18:00,0.0966,0.0849,0.0906,
江戸川 (Edogawa),2013-06-23,16:01～17:00,0.0969,0.0864,0.0906,
江戸川 (Edogawa),2013-06-23,15:01～16:00,0.0965,0.0848,0.0904,
江戸川 (Edogawa),2013-06-23,14:01～15:00,0.0954,0.0837,0.0897,
江戸川 (Edogawa),2013-06-23,13:01～14:00,0.0957,0.0850,0.0902,
江戸川 (Edogawa),2013-06-23,12:01～13:00,0.0949,0.0850,0.0893,
江戸川 (Edogawa),2013-06-23,11:01～12:00,0.0995,0.0846,0.0901,
江戸川 (Edogawa),2013-06-23,10:01～11:00,0.0937,0.0835,0.0896,
江戸川 (Edogawa),2013-06-23,09:01～10:00,0.0975,0.0851,0.0902,
江戸川 (Edogawa),2013-06-23,08:01～09:00,0.0957,0.0846,0.0900,
江戸川 (Edogawa),2013-06-23,07:01～08:00,0.0982,0.0811,0.0892,
江戸川 (Edogawa),2013-06-23,06:01～07:00,0.0958,0.0833,0.0896,
江戸川 (Edogawa),2013-06-23,05:01～06:00,0.0953,0.0835,0.0896,
江戸川 (Edogawa),2013-06-23,04:01～05:00,0.0965,0.0836,0.0898,
江戸川 (Edogawa),2013-06-23,03:01～04:00,0.0945,0.0825,0.0896,
江戸川 (Edogawa),2013-06-23,02:01～03:00,0.0941,0.0848,0.0893,
江戸川 (Edogawa),2013-06-23,01:01～02:00,0.0970,0.0833,0.0896,
江戸川 (Edogawa),2013-06-23,00:01～01:00,0.0950,0.0857,0.0896,
江戸川 (Edogawa),2013-06-22,23:01～24:00,0.0966,0.0833,0.0903,
江戸川 (Edogawa),2013-06-22,22:01～23:00,0.0969,0.0835,0.0896,
江戸川 (Edogawa),2013-06-22,21:01～22:00,0.0955,0.0859,0.0902,
江戸川 (Edogawa),2013-06-22,20:01～21:00,0.0947,0.0845,0.0895,
江戸川 (Edogawa),2013-06-22,19:01～20:00,0.0961,0.0822,0.0900,
江戸川 (Edogawa),2013-06-22,18:01～19:00,0.0959,0.0843,0.0897,
江戸川 (Edogawa),2013-06-22,17:01～18:00,0.0965,0.0846,0.0899,
江戸川 (Edogawa),2013-06-22,16:01～17:00,0.0950,0.0841,0.0892,
江戸川 (Edogawa),2013-06-22,15:01～16:00,0.0938,0.0824,0.0893,
江戸川 (Edogawa),2013-06-22,14:01～15:00,0.0961,0.0837,0.0900,
江戸川 (Edogawa),2013-06-22,13:01～14:00,0.0958,0.0840,0.0898,
江戸川 (Edogawa),2013-06-22,12:01～13:00,0.0969,0.0851,0.0898,
江戸川 (Edogawa),2013-06-22,11:01～12:00,0.0967,0.0824,0.0897,
江戸川 (Edogawa),2013-06-22,10:01～11:00,0.0948,0.0853,0.0900,
江戸川 (Edogawa),2013-06-22,09:01～10:00,0.0957,0.0840,0.0896,
江戸川 (Edogawa),2013-06-22,08:01～09:00,0.0948,0.0837,0.0894,
江戸川 (Edogawa),2013-06-22,07:01～08:00,0.0952,0.0833,0.0891,
江戸川 (Edogawa),2013-06-22,06:01～07:00,0.0958,0.0824,0.0892,
江戸川 (Edogawa),2013-06-22,05:01～06:00,0.0946,0.0823,0.0892,
江戸川 (Edogawa),2013-06-22,04:01～05:00,0.0941,0.0835,0.0885,
江戸川 (Edogawa),2013-06-22,03:01～04:00,0.0977,0.0831,0.0885,
江戸川 (Edogawa),2013-06-22,02:01～03:00,0.0955,0.0844,0.0890,
江戸川 (Edogawa),2013-06-22,01:01～02:00,0.0996,0.0877,0.0920,
江戸川 (Edogawa),2013-06-22,00:01～01:00,0.103,0.0899,0.0963,
江戸川 (Edogawa),2013-06-21,23:01～24:00,0.106,0.0933,0.0985,
江戸川 (Edogawa),2013-06-21,22:01～23:00,0.104,0.0922,0.0975,
江戸川 (Edogawa),2013-06-21,21:01～22:00,0.101,0.0903,0.0951,
江戸川 (Edogawa),2013-06-21,20:01～21:00,0.0997,0.0885,0.0948,
江戸川 (Edogawa),2013-06-21,19:01～20:00,0.100,0.0888,0.0940,
江戸川 (Edogawa),2013-06-21,18:01～19:00,0.0985,0.0855,0.0920,
江戸川 (Edogawa),2013-06-21,17:01～18:00,0.100,0.0885,0.0934,
江戸川 (Edogawa),2013-06-21,16:01～17:00,0.0978,0.0867,0.0920,
江戸川 (Edogawa),2013-06-21,15:01～16:00,0.0964,0.0872,0.0923,
江戸川 (Edogawa),2013-06-21,14:01～15:00,0.100,0.0866,0.0935,
江戸川 (Edogawa),2013-06-21,13:01～14:00,0.100,0.0883,0.0932,
江戸川 (Edogawa),2013-06-21,12:01～13:00,0.0995,0.0885,0.0938,
江戸川 (Edogawa),2013-06-21,11:01～12:00,0.0978,0.0859,0.0922,
江戸川 (Edogawa),2013-06-21,10:01～11:00,0.0946,0.0842,0.0894,
江戸川 (Edogawa),2013-06-21,09:01～10:00,0.0965,0.0839,0.0894,
江戸川 (Edogawa),2013-06-21,08:01～09:00,0.0963,0.0825,0.0887,
江戸川 (Edogawa),2013-06-21,07:01～08:00,0.0951,0.0794,0.0891,
江戸川 (Edogawa),2013-06-21,06:01～07:00,0.0950,0.0840,0.0888,
江戸川 (Edogawa),2013-06-21,05:01～06:00,0.0940,0.0841,0.0886,
江戸川 (Edogawa),2013-06-21,04:01～05:00,0.0951,0.0834,0.0889,
江戸川 (Edogawa),2013-06-21,03:01～04:00,0.0929,0.0840,0.0889,
江戸川 (Edogawa),2013-06-21,02:01～03:00,0.0955,0.0809,0.0887,
江戸川 (Edogawa),2013-06-21,01:01～02:00,0.0940,0.0828,0.0886,
江戸川 (Edogawa),2013-06-21,00:01～01:00,0.0945,0.0833,0.0886,
江戸川 (Edogawa),2013-06-20,23:01～24:00,0.0949,0.0822,0.0886,
江戸川 (Edogawa),2013-06-20,22:01～23:00,0.0953,0.0827,0.0896,
江戸川 (Edogawa),2013-06-20,21:01～22:00,0.0968,0.0830,0.0899,
江戸川 (Edogawa),2013-06-20,20:01～21:00,0.0988,0.0862,0.0924,
江戸川 (Edogawa),2013-06-20,19:01～20:00,0.103,0.0907,0.0971,
江戸川 (Edogawa),2013-06-20,18:01～19:00,0.100,0.0896,0.0949,
江戸川 (Edogawa),2013-06-20,17:01～18:00,0.102,0.0887,0.0958,
江戸川 (Edogawa),2013-06-20,16:01～17:00,0.101,0.0886,0.0948,
江戸川 (Edogawa),2013-06-20,15:01～16:00,0.100,0.0894,0.0946,
江戸川 (Edogawa),2013-06-20,14:01～15:00,0.104,0.0902,0.0965,
江戸川 (Edogawa),2013-06-20,13:01～14:00,0.105,0.0927,0.0990,
江戸川 (Edogawa),2013-06-20,12:01～13:00,0.103,0.0872,0.0939,
江戸川 (Edogawa),2013-06-20,11:01～12:00,0.0964,0.0827,0.0898,
江戸川 (Edogawa),2013-06-20,10:01～11:00,0.0958,0.0854,0.0902,
江戸川 (Edogawa),2013-06-20,09:01～10:00,0.0986,0.0848,0.0911,
江戸川 (Edogawa),2013-06-20,08:01～09:00,0.103,0.0882,0.0964,
江戸川 (Edogawa),2013-06-20,07:01～08:00,0.100,0.0872,0.0936,
江戸川 (Edogawa),2013-06-20,06:01～07:00,0.101,0.0877,0.0939,
江戸川 (Edogawa),2013-06-20,05:01～06:00,0.103,0.0913,0.0975,
江戸川 (Edogawa),2013-06-20,04:01～05:00,0.103,0.0879,0.0974,
江戸川 (Edogawa),2013-06-20,03:01～04:00,0.104,0.0909,0.0965,
江戸川 (Edogawa),2013-06-20,02:01～03:00,0.104,0.0904,0.0986,
江戸川 (Edogawa),2013-06-20,01:01～02:00,0.104,0.0898,0.0992,
江戸川 (Edogawa),2013-06-20,00:01～01:00,0.104,0.0919,0.0973,
江戸川 (Edogawa),2013-06-19,23:01～24:00,0.102,0.0897,0.0965,
江戸川 (Edogawa),2013-06-19,22:01～23:00,0.103,0.0896,0.0955,
江戸川 (Edogawa),2013-06-19,21:01～22:00,0.101,0.0900,0.0952,
江戸川 (Edogawa),2013-06-19,20:01～21:00,0.0987,0.0872,0.0935,
江戸川 (Edogawa),2013-06-19,19:01～20:00,0.0970,0.0859,0.0926,
江戸川 (Edogawa),2013-06-19,18:01～19:00,0.0985,0.0873,0.0930,
江戸川 (Edogawa),2013-06-19,17:01～18:00,0.107,0.0911,0.0975,
江戸川 (Edogawa),2013-06-19,16:01～17:00,0.104,0.0892,0.0968,
江戸川 (Edogawa),2013-06-19,15:01～16:00,0.100,0.0875,0.0931,
江戸川 (Edogawa),2013-06-19,14:01～15:00,0.102,0.0893,0.0956,
江戸川 (Edogawa),2013-06-19,13:01～14:00,0.101,0.0828,0.0928,
江戸川 (Edogawa),2013-06-19,12:01～13:00,0.0961,0.0851,0.0906,
江戸川 (Edogawa),2013-06-19,11:01～12:00,0.0964,0.0854,0.0899,
江戸川 (Edogawa),2013-06-19,10:01～11:00,0.0975,0.0830,0.0903,
江戸川 (Edogawa),2013-06-19,09:01～10:00,0.0953,0.0861,0.0905,
江戸川 (Edogawa),2013-06-19,08:01～09:00,0.0961,0.0845,0.0900,
江戸川 (Edogawa),2013-06-19,07:01～08:00,0.0977,0.0846,0.0896,
江戸川 (Edogawa),2013-06-19,06:01～07:00,0.0990,0.0861,0.0912,
江戸川 (Edogawa),2013-06-19,05:01～06:00,0.101,0.0864,0.0945,
江戸川 (Edogawa),2013-06-19,04:01～05:00,0.103,0.0897,0.0950,
江戸川 (Edogawa),2013-06-19,03:01～04:00,0.0970,0.0850,0.0907,
江戸川 (Edogawa),2013-06-19,02:01～03:00,0.0970,0.0851,0.0906,
江戸川 (Edogawa),2013-06-19,01:01～02:00,0.0956,0.0856,0.0905,
江戸川 (Edogawa),2013-06-19,00:01～01:00,0.0959,0.0849,0.0905,
江戸川 (Edogawa),2013-06-18,23:01～24:00,0.0962,0.0856,0.0906,
江戸川 (Edogawa),2013-06-18,22:01～23:00,0.0953,0.0848,0.0901,
江戸川 (Edogawa),2013-06-18,21:01～22:00,0.0971,0.0854,0.0912,
江戸川 (Edogawa),2013-06-18,20:01～21:00,0.0974,0.0834,0.0905,
江戸川 (Edogawa),2013-06-18,19:01～20:00,0.0990,0.0849,0.0905,
江戸川 (Edogawa),2013-06-18,18:01～19:00,0.0967,0.0854,0.0911,
江戸川 (Edogawa),2013-06-18,17:01～18:00,0.0972,0.0866,0.0913,
江戸川 (Edogawa),2013-06-18,16:01～17:00,0.0964,0.0856,0.0909,
江戸川 (Edogawa),2013-06-18,15:01～16:00,0.0954,0.0856,0.0910,
江戸川 (Edogawa),2013-06-18,14:01～15:00,0.0974,0.0861,0.0911,
江戸川 (Edogawa),2013-06-18,13:01～14:00,0.0958,0.0831,0.0909,
江戸川 (Edogawa),2013-06-18,12:01～13:00,0.0955,0.0848,0.0904,
江戸川 (Edogawa),2013-06-18,11:01～12:00,0.0961,0.0850,0.0910,
江戸川 (Edogawa),2013-06-18,10:01～11:00,0.0985,0.0848,0.0910,
江戸川 (Edogawa),2013-06-18,09:01～10:00,0.0963,0.0856,0.0904,
江戸川 (Edogawa),2013-06-18,08:01～09:00,0.0972,0.0840,0.0910,
江戸川 (Edogawa),2013-06-18,07:01～08:00,0.0958,0.0842,0.0910,
江戸川 (Edogawa),2013-06-18,06:01～07:00,0.0960,0.0844,0.0897,
江戸川 (Edogawa),2013-06-18,05:01～06:00,0.0990,0.0829,0.0898,
江戸川 (Edogawa),2013-06-18,04:01～05:00,0.0972,0.0858,0.0900,
江戸川 (Edogawa),2013-06-18,03:01～04:00,0.0975,0.0843,0.0903,
江戸川 (Edogawa),2013-06-18,02:01～03:00,0.0954,0.0842,0.0899,
江戸川 (Edogawa),2013-06-18,01:01～02:00,0.0975,0.0844,0.0905,
江戸川 (Edogawa),2013-06-18,00:01～01:00,0.0970,0.0852,0.0906,
江戸川 (Edogawa),2013-06-17,23:01～24:00,0.0966,0.0837,0.0907,
江戸川 (Edogawa),2013-06-17,22:01～23:00,0.0976,0.0833,0.0909,
江戸川 (Edogawa),2013-06-17,21:01～22:00,0.0961,0.0849,0.0908,
江戸川 (Edogawa),2013-06-17,20:01～21:00,0.0948,0.0862,0.0903,
江戸川 (Edogawa),2013-06-17,19:01～20:00,0.0969,0.0827,0.0904,
江戸川 (Edogawa),2013-06-17,18:01～19:00,0.0981,0.0849,0.0909,
江戸川 (Edogawa),2013-06-17,17:01～18:00,0.0964,0.0861,0.0904,
江戸川 (Edogawa),2013-06-17,16:01～17:00,0.0953,0.0848,0.0899,
江戸川 (Edogawa),2013-06-17,15:01～16:00,0.0963,0.0858,0.0903,
江戸川 (Edogawa),2013-06-17,14:01～15:00,0.0952,0.0843,0.0898,
江戸川 (Edogawa),2013-06-17,13:01～14:00,0.0974,0.0828,0.0902,
江戸川 (Edogawa),2013-06-17,12:01～13:00,0.0964,0.0847,0.0902,
江戸川 (Edogawa),2013-06-17,11:01～12:00,0.0962,0.0836,0.0896,
江戸川 (Edogawa),2013-06-17,10:01～11:00,0.0966,0.0854,0.0898,
江戸川 (Edogawa),2013-06-17,09:01～10:00,0.0953,0.0833,0.0888,
江戸川 (Edogawa),2013-06-17,08:01～09:00,0.0956,0.0831,0.0896,
江戸川 (Edogawa),2013-06-17,07:01～08:00,0.0941,0.0837,0.0887,
江戸川 (Edogawa),2013-06-17,06:01～07:00,0.0960,0.0857,0.0900,
江戸川 (Edogawa),2013-06-17,05:01～06:00,0.0958,0.0829,0.0889,
江戸川 (Edogawa),2013-06-17,04:01～05:00,0.0952,0.0829,0.0894,
江戸川 (Edogawa),2013-06-17,03:01～04:00,0.0946,0.0822,0.0893,
江戸川 (Edogawa),2013-06-17,02:01～03:00,0.0962,0.0829,0.0898,
江戸川 (Edogawa),2013-06-17,01:01～02:00,0.0955,0.0836,0.0898,
江戸川 (Edogawa),2013-06-17,00:01～01:00,0.0977,0.0841,0.0896,
